Tracking 22454 objects as of 5-Mar-2021
HD Live streaming from Space Station
objects crossing your sky now

COSMOS 2491 DEB

Track COSMOS 2491 DEB now!
10-day predictions


NORAD ID: 44988
Int'l Code: 2013-076J
Perigee: 1,446.6 km
Apogee: 1,496.5 km
Inclination: 82.5 °
Period: 115.2 minutes
Semi major axis: 7842 km
RCS: Unknown
Launch date: December 25, 2013
Source: Commonwealth of Independent States (former USSR) (CIS)
Launch site: PLESETSK MISSILE AND SPACE COMPLEX (PKMTR)

Note: This is SATELLITE DEBRIS
aabbcc
Your satellite tracking list
Your tracking list is empty




NASA's NSSDC Master Catalog

Two Line Element Set (TLE):
1 44988U 13076J   20046.60167366 +.00001130 +00000-0 +73592-2 0  9990
2 44988 082.4556 171.1135 0031839 336.9957 021.3859 12.50018592004982
Source of the keplerian elements: AFSPC